EW4347 Weather Reports


Display with metric or nautical units.
time (UTC)temp
F
wind
direction
speed
MPH
gust
MPH
rain 1hr
in
rain 24hr
in
rain mn
in
humidity
%
barometer
mb
20260507105146 44 263 1.0 5.0 0.00 0.92 0.16 95 1005.4
20260507104646 44 247 2.0 5.0 0.00 0.92 0.16 95 1005.5
20260507104543 44 276 2.0 5.0 0.00 0.92 0.16 95 1005.5
20260507104103 44 293 2.0 4.0 0.00 0.92 0.16 95 1005.3
20260507103603 44 273 1.0 8.0 0.00 0.92 0.16 95 1004.9
20260507103103 44 244 2.0 8.0 0.00 0.92 0.16 96 1004.9
20260507103029 44 263 2.0 6.0 0.00 0.92 0.16 96 1004.9
20260507102602 44 199 2.0 4.0 0.00 0.92 0.16 96 1004.9
20260507102102 43 198 1.0 4.0 0.00 0.92 0.16 97 1005.1
20260507101601 43 199 1.0 4.0 0.00 0.92 0.16 97 1005.0
20260507101511 43 199 1.0 4.0 0.00 0.92 0.16 97 1004.9
20260507101101 43 185 0.0 3.0 0.00 0.92 0.16 97 1004.8
20260507100601 43 185 1.0 3.0 0.00 0.92 0.16 97 1005.1
20260507095600 43 209 0.0 3.0 0.01 0.92 0.16 97 1004.9
20260507095100 43 170 0.0 2.0 0.01 0.92 0.16 97 1004.9
20260507094600 43 141 0.0 2.0 0.01 0.92 0.16 97 1004.9
20260507094039 43 154 0.0 2.0 0.01 0.92 0.16 97 1004.9
20260507093538 43 251 0.0 2.0 0.01 0.92 0.16 97 1004.8
20260507093038 43 251 0.0 2.0 0.01 0.92 0.16 96 1005.0
20260507092536 43 251 0.0 2.0 0.01 0.92 0.16 96 1004.9
20260507092036 43 251 0.0 3.0 0.01 0.92 0.16 96 1005.0
20260507091536 43 251 1.0 3.0 0.01 0.92 0.16 96 1005.1
20260507091035 43 251 1.0 3.0 0.01 0.92 0.16 96 1005.1
20260507090535 43 251 1.0 2.0 0.01 0.92 0.16 96 1004.8
20260507090014 43 252 0.0 2.0 0.01 0.92 0.16 95 1004.5
20260507085513 43 252 0.0 2.0 0.00 0.91 0.15 95 1004.3
20260507085013 44 252 0.0 3.0 0.00 0.91 0.15 95 1004.2
20260507084513 44 246 0.0 4.0 0.00 0.91 0.15 95 1004.4
20260507084013 44 246 2.0 7.0 0.00 0.91 0.15 95 1004.6
20260507083451 44 256 2.0 7.0 0.00 0.91 0.15 95 1004.6
20260507082951 44 276 1.0 7.0 0.00 0.91 0.15 95 1004.5
20260507082430 44 249 1.0 7.0 0.00 0.91 0.15 95 1004.7
20260507081929 45 246 2.0 6.0 0.00 0.91 0.15 95 1004.7
20260507081429 45 237 1.0 6.0 0.00 0.91 0.15 95 1004.9
20260507080928 45 250 2.0 3.0 0.00 0.91 0.15 95 1004.8
20260507080428 45 248 0.0 6.0 0.00 0.91 0.15 95 1004.9
20260507075928 45 250 2.0 6.0 0.00 0.91 0.15 95 1004.7
20260507075428 45 262 1.0 3.0 0.00 0.91 0.15 95 1004.6
20260507074927 45 263 1.0 4.0 0.00 0.91 0.15 95 1004.4
20260507074427 46 265 1.0 5.0 0.00 0.91 0.15 95 1004.3
20260507073926 46 266 2.0 7.0 0.00 0.91 0.15 95 1004.4
20260507073426 46 249 3.0 7.0 0.00 0.91 0.15 95 1004.6
20260507072926 46 257 3.0 7.0 0.00 0.91 0.15 96 1004.5
20260507072404 46 250 1.0 6.0 0.00 0.91 0.15 96 1004.5
20260507071904 46 231 2.0 4.0 0.00 0.91 0.15 96 1004.4
20260507071643 46 219 2.0 4.0 0.00 0.91 0.15 96 1004.4
20260507071403 46 218 1.0 4.0 0.00 0.91 0.15 96 1004.3
20260507070903 46 212 1.0 5.0 0.00 0.91 0.15 97 1004.1
20260507070403 46 212 2.0 5.0 0.00 0.91 0.15 97 1004.1
20260507070130 46 290 1.0 3.0 0.01 0.91 0.15 97 1003.9
20260507065903 46 291 1.0 3.0 0.01 0.91 0.15 97 1003.8
20260507065402 46 291 1.0 2.0 0.01 0.91 0.15 96 1003.9
20260507064902 46 291 0.0 2.0 0.02 0.91 0.15 96 1003.9
20260507064604 46 291 0.0 2.0 0.02 0.91 0.15 96 1004.1
20260507064401 46 291 0.0 2.0 0.03 0.91 0.15 96 1004.1
20260507063902 46 291 1.0 3.0 0.04 0.91 0.15 96 1004.1
20260507063401 46 292 1.0 5.0 0.04 0.91 0.15 96 1003.8
20260507063051 46 292 1.0 6.0 0.04 0.91 0.15 96 1003.9
20260507062901 46 303 1.0 6.0 0.04 0.91 0.15 95 1003.7
20260507062400 46 276 2.0 4.0 0.04 0.91 0.15 96 1003.8
20260507061900 46 316 2.0 5.0 0.06 0.91 0.15 96 1003.7
20260507061533 47 319 3.0 5.0 0.06 0.91 0.15 96 1003.6
20260507061400 47 296 2.0 5.0 0.06 0.91 0.15 96 1003.6
20260507060859 47 273 1.0 7.0 0.06 0.91 0.15 96 1003.9
20260507060359 47 273 3.0 9.0 0.07 0.91 0.15 95 1003.7
20260507060021 47 268 3.0 9.0 0.06 0.90 0.14 96 1003.8
20260507055859 47 279 4.0 9.0 0.06 0.90 0.14 96 1003.6
20260507055358 47 298 2.0 5.0 0.06 0.90 0.14 96 1003.4
20260507054858 47 276 2.0 5.0 0.06 0.89 0.13 96 1003.7
20260507054358 47 270 1.0 6.0 0.06 0.88 0.12 96 1003.9
20260507053857 47 271 2.0 9.0 0.06 0.87 0.11 96 1003.7
20260507053357 47 264 2.0 9.0 0.07 0.87 0.11 96 1003.9
20260507052857 47 245 2.0 7.0 0.08 0.87 0.11 96 1003.9
20260507052357 47 259 3.0 11.0 0.08 0.87 0.11 96 1004.1
20260507051835 47 243 2.0 11.0 0.07 0.85 0.09 96 1004.3
20260507051335 47 252 3.0 8.0 0.07 0.85 0.09 96 1004.0
20260507050835 47 270 3.0 8.0 0.08 0.85 0.09 96 1003.7
20260507050334 47 278 1.0 10.0 0.07 0.84 0.08 95 1003.8
20260507045834 47 269 4.0 11.0 0.08 0.84 0.08 95 1003.8
20260507045333 48 276 4.0 11.0 0.08 0.84 0.08 95 1003.6
20260507044833 48 291 4.0 10.0 0.08 0.83 0.07 95 1003.6
20260507044333 48 295 4.0 15.0 0.09 0.82 0.06 95 1003.7
20260507043811 48 245 7.0 15.0 0.08 0.81 0.05 95 1003.6
20260507043311 49 263 4.0 13.0 0.08 0.80 0.04 96 1003.8
20260507042811 49 270 6.0 13.0 0.07 0.79 0.03 96 1003.7
20260507042311 49 274 3.0 11.0 0.07 0.79 0.03 96 1003.8
20260507041810 50 322 4.0 10.0 0.07 0.78 0.02 96 1003.8
20260507041249 50 251 4.0 8.0 0.07 0.78 0.02 96 1003.8
20260507040749 50 278 3.0 10.0 0.06 0.77 0.01 96 1003.6
20260507040248 50 279 5.0 11.0 0.06 0.77 0.01 96 1003.5
20260507035748 51 297 6.0 13.0 0.05 0.76 0.76 95 1003.3
20260507035248 52 300 4.0 11.0 0.04 0.75 0.75 95 1003.2
20260507034747 53 256 5.0 11.0 0.04 0.74 0.74 97 1003.0
20260507034226 54 199 1.0 8.0 0.04 0.73 0.73 97 1002.8
20260507033725 54 157 3.0 10.0 0.06 0.73 0.73 97 1002.7
20260507033225 54 154 6.0 12.0 0.05 0.72 0.72 97 1002.7
20260507032704 54 172 5.0 12.0 0.06 0.72 0.72 97 1002.6
20260507032204 54 152 3.0 10.0 0.06 0.72 0.72 97 1002.6
20260507031703 54 175 4.0 10.0 0.05 0.71 0.71 97 1002.6
20260507031203 54 191 4.0 9.0 0.05 0.71 0.71 97 1002.5
20260507030702 54 164 4.0 12.0 0.05 0.71 0.71 97 1002.5
20260507030149 54 169 4.0 12.0 0.05 0.71 0.71 97 1002.6
20260507030120 54 180 5.0 12.0 0.06 0.71 0.71 97 1002.5
20260507025620 54 179 5.0 12.0 0.06 0.71 0.71 97 1002.5
20260507025058 54 169 5.0 12.0 0.06 0.71 0.71 97 1002.5
20260507024633 54 179 3.0 9.0 0.05 0.70 0.70 97 1002.6
20260507024558 54 221 3.0 9.0 0.04 0.69 0.69 97 1002.6
20260507024058 54 133 5.0 9.0 0.03 0.68 0.68 97 1002.6
20260507023558 54 145 4.0 9.0 0.02 0.67 0.67 97 1002.5
20260507023057 54 127 4.0 11.0 0.02 0.67 0.67 97 1002.4
20260507022557 54 110 6.0 13.0 0.02 0.66 0.66 97 1002.4
20260507022056 54 152 4.0 11.0 0.02 0.66 0.66 97 1002.4
20260507021556 54 122 6.0 12.0 0.02 0.66 0.66 97 1002.5
20260507021056 55 156 6.0 12.0 0.02 0.66 0.66 97 1002.5
20260507020555 55 126 3.0 10.0 0.02 0.66 0.66 97 1002.7
20260507020055 55 151 3.0 10.0 0.01 0.65 0.65 97 1002.6
20260507015555 55 79 3.0 15.0 0.01 0.65 0.65 97 1002.7
20260507015054 55 100 7.0 18.0 0.01 0.65 0.65 97 1002.9
20260507014554 55 133 5.0 18.0 0.01 0.65 0.65 97 1003.0
20260507014537 55 100 5.0 18.0 0.01 0.65 0.65 97 1003.0
20260507014011 55 89 9.0 16.0 0.02 0.65 0.65 97 1003.1
20260507013511 55 138 5.0 13.0 0.02 0.65 0.65 97 1003.1
20260507013011 55 77 3.0 13.0 0.02 0.65 0.65 97 1003.1
20260507013002 55 77 3.0 13.0 0.02 0.65 0.65 97 1003.2
20260507012510 55 93 7.0 13.0 0.01 0.64 0.64 97 1003.2
20260507012010 55 87 5.0 12.0 0.02 0.64 0.64 97 1003.3
20260507011510 55 110 3.0 9.0 0.03 0.64 0.64 97 1003.4
20260507010510 55 106 4.0 13.0 0.03 0.64 0.64 97 1003.7
20260507010009 55 124 4.0 14.0 0.03 0.64 0.64 97 1003.6
20260507005509 55 122 6.0 14.0 0.03 0.64 0.64 97 1003.8
20260507005009 55 91 7.0 14.0 0.03 0.64 0.64 97 1003.8
20260507004508 55 140 6.0 13.0 0.03 0.64 0.64 97 1003.9
20260507004008 55 124 5.0 14.0 0.02 0.63 0.63 97 1003.9
20260507003508 55 133 5.0 14.0 0.02 0.63 0.63 97 1003.9
20260507003007 55 62 5.0 10.0 0.02 0.63 0.63 97 1003.9
20260507002507 55 177 4.0 10.0 0.02 0.63 0.63 97 1004.0
20260507002007 55 104 2.0 10.0 0.01 0.62 0.62 97 1004.0
20260507001506 55 140 4.0 10.0 0.00 0.61 0.61 97 1004.1
20260507001006 55 104 5.0 12.0 0.00 0.61 0.61 97 1004.1
20260507000506 55 63 2.0 12.0 0.00 0.61 0.61 97 1004.2
20260507000006 55 129 4.0 9.0 0.01 0.61 0.61 97 1004.2
20260506235505 55 122 3.0 7.0 0.03 0.61 0.61 97 1004.3
20260506234923 55 96 3.0 9.0 0.08 0.61 0.61 97 1004.3
20260506234422 55 117 5.0 9.0 0.09 0.61 0.61 97 1004.3
20260506233922 55 121 3.0 9.0 0.10 0.61 0.61 97 1004.3
20260506233422 55 142 2.0 6.0 0.11 0.61 0.61 97 1004.4
20260506232900 55 114 2.0 7.0 0.12 0.61 0.61 97 1004.4
20260506232400 55 86 2.0 6.0 0.18 0.61 0.61 97 1004.4
20260506231900 55 112 1.0 6.0 0.19 0.61 0.61 97 1004.5
20260506231359 55 128 1.0 7.0 0.20 0.61 0.61 97 1004.5
20260506230859 55 83 3.0 7.0 0.22 0.61 0.61 97 1004.5
20260506230359 55 58 2.0 9.0 0.22 0.61 0.61 96 1004.6
20260506225858 55 100 4.0 12.0 0.21 0.58 0.58 96 1004.5
20260506225337 55 94 3.0 8.0 0.20 0.57 0.57 96 1004.6
20260506224837 55 131 3.0 8.0 0.16 0.52 0.52 96 1004.6
20260506224337 55 122 2.0 7.0 0.16 0.52 0.52 96 1004.7
20260506223836 55 115 2.0 10.0 0.16 0.51 0.51 96 1004.7
20260506223336 55 135 3.0 10.0 0.15 0.50 0.50 96 1004.8
20260506223150 55 182 6.0 10.0 0.14 0.49 0.49 96 1004.8
20260506222836 55 107 3.0 12.0 0.13 0.47 0.47 96 1005.0
20260506222335 55 152 5.0 12.0 0.09 0.43 0.43 96 1004.9
20260506221835 55 141 4.0 9.0 0.07 0.41 0.41 96 1004.8
20260506221335 56 115 5.0 9.0 0.07 0.40 0.40 96 1004.8
20260506220834 56 137 4.0 11.0 0.07 0.39 0.39 96 1004.9
20260506220334 56 132 5.0 16.0 0.07 0.38 0.38 96 1004.9
20260506220109 56 106 5.0 16.0 0.07 0.38 0.38 96 1004.9
20260506215834 55 115 6.0 16.0 0.07 0.38 0.38 96 1004.8
20260506215333 55 120 6.0 13.0 0.07 0.37 0.37 96 1004.9
20260506214833 55 91 7.0 13.0 0.08 0.37 0.37 96 1004.8
20260506214556 55 92 6.0 12.0 0.07 0.36 0.36 96 1004.9
20260506214312 55 105 3.0 12.0 0.07 0.36 0.36 96 1004.8
20260506213811 55 71 5.0 13.0 0.07 0.35 0.35 96 1004.7
20260506213311 55 115 5.0 13.0 0.08 0.35 0.35 96 1004.8
20260506213054 55 79 5.0 12.0 0.09 0.35 0.35 95 1004.9
20260506212811 55 139 4.0 12.0 0.09 0.34 0.34 95 1004.9
20260506212310 55 110 4.0 12.0 0.10 0.34 0.34 95 1004.9
20260506211749 55 97 5.0 10.0 0.11 0.34 0.34 95 1005.0
20260506211532 55 120 3.0 11.0 0.10 0.33 0.33 95 1005.0
20260506211248 55 126 5.0 12.0 0.11 0.33 0.33 95 1004.9
20260506210748 55 126 4.0 15.0 0.11 0.32 0.32 95 1005.1
20260506210248 55 156 4.0 15.0 0.11 0.31 0.31 95 1005.2
20260506210001 55 118 6.0 15.0 0.12 0.31 0.31 95 1005.2
20260506205747 55 148 6.0 11.0 0.12 0.31 0.31 95 1005.2
20260506205247 55 142 4.0 11.0 0.12 0.30 0.30 95 1005.2
20260506204747 55 141 5.0 11.0 0.14 0.29 0.29 95 1005.1
20260506204246 55 156 3.0 12.0 0.15 0.28 0.28 95 1005.1
20260506203725 55 154 5.0 12.0 0.16 0.27 0.27 95 1005.2
20260506203204 56 154 5.0 16.0 0.16 0.26 0.26 95 1005.2
20260506202703 56 161 5.0 12.0 0.16 0.25 0.25 95 1005.3
20260506202203 56 68 5.0 11.0 0.17 0.24 0.24 94 1005.3
20260506201702 56 95 4.0 11.0 0.17 0.23 0.23 94 1005.2
20260506201202 56 130 3.0 11.0 0.17 0.22 0.22 94 1005.3
20260506200702 56 134 3.0 14.0 0.17 0.21 0.21 94 1005.4
20260506200202 56 143 4.0 14.0 0.17 0.20 0.20 94 1005.2
20260506195702 56 106 3.0 13.0 0.17 0.19 0.19 93 1005.3
20260506195201 56 110 5.0 11.0 0.16 0.17 0.17 93 1005.2
20260506194701 57 48 5.0 10.0 0.14 0.15 0.15 93 1005.3
20260506194200 57 125 4.0 9.0 0.13 0.13 0.13 92 1005.3
20260506193700 57 100 4.0 12.0 0.11 0.11 0.11 92 1005.3
20260506193200 57 88 7.0 12.0 0.10 0.10 0.10 91 1005.1
20260506192659 58 75 4.0 9.0 0.09 0.09 0.09 91 1005.3
20260506192159 58 66 5.0 9.0 0.07 0.07 0.07 91 1005.4
20260506191659 58 79 4.0 12.0 0.06 0.06 0.06 91 1005.4
20260506191137 58 118 6.0 12.0 0.05 0.05 0.05 90 1005.5
20260506190637 59 92 4.0 11.0 0.04 0.04 0.04 89 1005.5
20260506190136 59 73 5.0 12.0 0.02 0.02 0.02 87 1005.5
20260506185636 60 100 5.0 12.0 0.01 0.01 0.01 86 1005.4
20260506185136 60 78 3.0 9.0 0.01 0.01 0.01 85 1005.7
20260506184614 61 87 3.0 8.0 0.01 0.01 0.01 84 1005.7
20260506184114 61 96 5.0 13.0 0.00 0.00 0.00 82 1005.6
20260506183614 61 86 4.0 13.0 0.00 0.00 0.00 81 1005.7
20260506183052 61 95 3.0 9.0 0.00 0.00 0.00 82 1005.7
20260506182552 61 80 3.0 11.0 0.00 0.00 0.00 81 1005.8
20260506182052 62 102 5.0 11.0 0.00 0.00 0.00 80 1005.7
20260506181552 62 54 4.0 11.0 0.00 0.00 0.00 78 1005.8
20260506181051 62 73 4.0 13.0 0.00 0.00 0.00 77 1005.7
20260506180551 63 77 5.0 13.0 0.00 0.00 0.00 77 1006.0
20260506180050 63 102 3.0 9.0 0.00 0.00 0.00 77 1006.1
20260506175550 63 93 3.0 9.0 0.00 0.00 0.00 76 1006.1
20260506175050 63 107 2.0 10.0 0.00 0.00 0.00 76 1006.2
20260506174633 63 158 5.0 11.0 0.00 0.00 0.00 76 1006.1
20260506174550 63 79 6.0 11.0 0.00 0.00 0.00 76 1006.1
20260506174028 63 132 5.0 11.0 0.00 0.00 0.00 76 1006.1
20260506173528 63 112 5.0 10.0 0.00 0.00 0.00 77 1006.2
20260506173110 63 129 5.0 14.0 0.00 0.00 0.00 77 1006.3
20260506173028 63 115 5.0 14.0 0.00 0.00 0.00 76 1006.3
20260506172527 63 83 5.0 14.0 0.00 0.00 0.00 76 1006.5
20260506172027 63 124 6.0 12.0 0.00 0.00 0.00 77 1006.6
20260506171554 62 104 4.0 11.0 0.00 0.00 0.00 77 1006.8
20260506171527 62 79 5.0 11.0 0.00 0.00 0.00 77 1006.8
20260506171026 62 131 4.0 9.0 0.00 0.00 0.00 78 1006.8
20260506170505 62 97 4.0 9.0 0.00 0.00 0.00 76 1006.9
20260506170005 62 92 4.0 8.0 0.00 0.00 0.00 77 1007.0
20260506165504 62 149 2.0 8.0 0.00 0.00 0.00 77 1007.1
20260506165004 62 154 5.0 8.0 0.00 0.00 0.00 77 1007.2
20260506164524 62 111 4.0 8.0 0.00 0.00 0.00 77 1007.3
20260506164504 62 123 4.0 8.0 0.00 0.00 0.00 77 1007.2
20260506164004 63 166 3.0 9.0 0.00 0.00 0.00 76 1007.2
20260506163503 63 116 3.0 14.0 0.00 0.00 0.00 76 1007.4
20260506163003 63 108 5.0 14.0 0.00 0.00 0.00 76 1007.6
20260506162942 63 64 5.0 14.0 0.00 0.00 0.00 76 1007.5
20260506162441 63 124 6.0 17.0 0.00 0.00 0.00 76 1007.5
20260506161941 63 137 3.0 17.0 0.00 0.00 0.00 76 1007.5
20260506161440 63 90 5.0 12.0 0.00 0.00 0.00 76 1007.5
20260506160940 63 135 2.0 9.0 0.00 0.00 0.00 77 1007.4
20260506160440 62 95 2.0 13.0 0.00 0.00 0.00 77 1007.5
20260506155940 62 172 5.0 16.0 0.00 0.00 0.00 77 1007.6
20260506155357 62 76 5.0 13.0 0.00 0.00 0.00 77 1007.6
20260506154857 62 126 4.0 10.0 0.00 0.00 0.00 77 1007.6
20260506154356 61 136 3.0 10.0 0.00 0.00 0.00 78 1007.6
20260506153856 61 115 4.0 10.0 0.00 0.00 0.00 78 1007.8
20260506153356 60 76 4.0 9.0 0.00 0.00 0.00 79 1007.8
20260506152834 60 73 5.0 8.0 0.00 0.00 0.00 79 1007.8
20260506152334 60 75 5.0 8.0 0.00 0.00 0.00 79 1007.6
20260506151834 60 65 5.0 11.0 0.00 0.00 0.00 78 1007.4
20260506151334 60 37 7.0 11.0 0.00 0.00 0.00 78 1007.4
20260506150833 61 52 5.0 12.0 0.00 0.00 0.00 78 1007.3
20260506150333 61 85 8.0 12.0 0.00 0.00 0.00 77 1007.3
20260506145833 61 112 5.0 12.0 0.00 0.00 0.00 77 1007.0
20260506145332 60 31 3.0 9.0 0.00 0.00 0.00 78 1007.3
20260506144832 60 44 3.0 9.0 0.00 0.00 0.00 78 1007.6
20260506144332 60 37 4.0 6.0 0.00 0.00 0.00 78 1008.0
20260506143832 59 46 2.0 8.0 0.00 0.00 0.00 78 1007.9
20260506143331 59 50 4.0 8.0 0.00 0.00 0.00 78 1008.0
20260506142810 59 40 3.0 8.0 0.00 0.00 0.00 78 1007.9
20260506142310 59 52 3.0 9.0 0.00 0.00 0.00 79 1008.0
20260506141809 59 47 5.0 9.0 0.00 0.00 0.00 78 1008.2
20260506141309 59 51 4.0 8.0 0.00 0.00 0.00 79 1008.3
20260506140726 59 77 4.0 8.0 0.00 0.00 0.00 77 1008.4
20260506140205 59 39 2.0 7.0 0.00 0.00 0.00 79 1008.4
20260506135705 59 23 3.0 7.0 0.00 0.00 0.00 78 1008.2
20260506135204 59 10 3.0 7.0 0.00 0.00 0.00 79 1008.3
20260506134704 59 45 2.0 6.0 0.00 0.00 0.00 78 1008.3
20260506134204 59 10 2.0 5.0 0.00 0.00 0.00 78 1008.2
20260506133704 59 13 2.0 5.0 0.00 0.00 0.00 78 1008.2
20260506133203 59 41 4.0 5.0 0.00 0.00 0.00 77 1008.1
20260506133146 59 41 4.0 5.0 0.00 0.00 0.00 77 1008.1
20260506132703 59 18 2.0 5.0 0.00 0.00 0.00 79 1008.1
20260506132141 59 358 2.0 5.0 0.00 0.00 0.00 79 1008.2
20260506131641 59 32 2.0 4.0 0.00 0.00 0.00 81 1008.4
20260506131632 59 32 2.0 4.0 0.00 0.00 0.00 81 1008.4
20260506131141 59 27 1.0 5.0 0.00 0.00 0.00 79 1008.5
20260506130640 58 29 3.0 5.0 0.00 0.00 0.00 80 1008.5
20260506130140 59 39 3.0 6.0 0.00 0.00 0.00 79 1008.3
20260506130114 59 38 3.0 6.0 0.00 0.00 0.00 79 1008.4
20260506125619 58 72 1.0 6.0 0.00 0.00 0.00 81 1008.5
20260506125118 58 79 2.0 7.0 0.00 0.00 0.00 80 1008.5
20260506124618 58 69 3.0 6.0 0.00 0.00 0.00 80 1008.8
20260506124552 58 46 2.0 5.0 0.00 0.00 0.00 80 1008.8
20260506124118 58 45 2.0 4.0 0.00 0.00 0.00 80 1009.0
20260506123618 57 56 1.0 4.0 0.00 0.00 0.00 82 1009.0
20260506123117 57 60 1.0 4.0 0.00 0.00 0.00 82 1008.9
20260506123037 57 60 1.0 4.0 0.00 0.00 0.00 81 1008.9
20260506122617 57 62 0.0 7.0 0.00 0.00 0.00 82 1008.9
20260506122117 57 61 4.0 7.0 0.00 0.00 0.00 81 1009.0
20260506121555 57 54 2.0 3.0 0.00 0.00 0.00 84 1008.8
20260506121524 57 54 2.0 3.0 0.00 0.00 0.00 84 1008.9
20260506121055 56 54 1.0 4.0 0.00 0.00 0.00 84 1008.9
20260506120555 56 54 1.0 4.0 0.00 0.00 0.00 85 1008.8
20260506120055 56 56 2.0 4.0 0.00 0.00 0.00 85 1009.0
20260506120006 56 56 2.0 4.0 0.00 0.00 0.00 85 1009.0
20260506115554 55 60 2.0 4.0 0.00 0.00 0.00 84 1009.0
20260506115033 55 66 2.0 5.0 0.00 0.00 0.00 86 1008.9
20260506114532 55 33 3.0 5.0 0.00 0.00 0.00 86 1008.9
20260506114032 55 1 1.0 3.0 0.00 0.00 0.00 86 1008.9
20260506113511 54 334 0.0 2.0 0.00 0.00 0.00 86 1009.1
20260506112949 54 23 1.0 3.0 0.00 0.00 0.00 87 1009.2
20260506112449 54 48 1.0 3.0 0.00 0.00 0.00 87 1009.2
20260506111949 54 50 1.0 2.0 0.00 0.00 0.00 87 1009.3
20260506111427 54 40 1.0 2.0 0.00 0.00 0.00 88 1009.2
20260506110927 54 40 1.0 2.0 0.00 0.00 0.00 88 1009.1
20260506110427 53 38 0.0 2.0 0.00 0.00 0.00 89 1009.1
20260506105926 53 39 0.0 2.0 0.00 0.00 0.00 89 1009.1
20260506105426 53 344 0.0 2.0 0.00 0.00 0.00 89 1009.2